CSS772 ELLX-ESGG

Flight info

Callsign CSS772
Flight time N/A
Altitude 23000
Route ASMOX1R/24 ASMOX Y891 ROPUV/N0494F330 L607 UBIDU L984 RUDUS/N0457F230 Z10 GISEM/N0491F340 N850 WRB/N0455F230 P12 NORTA/N0485F400 P605 HAM/N0489F410 P605 GESKA/N0491F400 Z706 NOVPO L997 RISMA RISMA3T
Aircraft B77L/H-SDE1E2E3FGHIJ2J3J4J5M1RWXY/LB1D1

Departure

Time N/A
Airport Luxembourg-Findel International Airport (ELLX)

Arrival

Time 2026-05-04 15:04
Airport Göteborg Landvetter Airport (ESGG)
Time Latitude Longitude Altitude Speed Heading
2026-05-04 14:15 53.19157 10.13147 22957 ft 465 kts 356°
2026-05-04 14:15 53.25602 10.13362 22960 ft 464 kts 356°
2026-05-04 14:16 53.32052 10.13579 22963 ft 464 kts 356°
2026-05-04 14:16 53.35276 10.13686 22965 ft 465 kts 356°
2026-05-04 14:17 53.41776 10.14295 22961 ft 467 kts
2026-05-04 14:17 53.44962 10.15015 22965 ft 470 kts
2026-05-04 14:17 53.51475 10.16522 22970 ft 472 kts
2026-05-04 14:18 53.54701 10.17272 22970 ft 471 kts
2026-05-04 14:18 53.61178 10.18779 22967 ft 470 kts
2026-05-04 14:19 53.67523 10.21947 22971 ft 481 kts 21°
2026-05-04 14:19 53.70435 10.24791 22966 ft 489 kts 31°
2026-05-04 14:19 53.73049 10.28387 22965 ft 492 kts 40°
2026-05-04 14:19 53.75423 10.32564 22972 ft 496 kts 44°
2026-05-04 14:20 53.77766 10.36867 22971 ft 497 kts 44°
2026-05-04 14:20 53.80089 10.41130 22967 ft 498 kts 44°
2026-05-04 14:20 53.82434 10.45429 22970 ft 498 kts 44°
2026-05-04 14:21 53.87138 10.54041 22980 ft 499 kts 44°
2026-05-04 14:21 53.89494 10.58354 22979 ft 500 kts 44°
2026-05-04 14:21 53.91882 10.62730 22985 ft 499 kts 44°
2026-05-04 14:21 53.94232 10.67039 22966 ft 501 kts 45°
2026-05-04 14:22 53.96623 10.71398 22958 ft 504 kts 44°
2026-05-04 14:22 53.99033 10.75777 22980 ft 515 kts 44°
2026-05-04 14:22 54.01460 10.80196 22967 ft 515 kts 44°
2026-05-04 14:22 54.03940 10.84720 22956 ft 516 kts 44°
2026-05-04 14:23 54.08844 10.93692 22960 ft 514 kts 44°
2026-05-04 14:23 54.11281 10.98163 22959 ft 514 kts 44°
2026-05-04 14:23 54.13696 11.02617 22955 ft 513 kts 44°
2026-05-04 14:24 54.16113 11.07098 22945 ft 514 kts 45°
2026-05-04 14:24 54.18512 11.11553 22973 ft 514 kts 45°
2026-05-04 14:24 54.20919 11.16032 22942 ft 513 kts 45°
2026-05-04 14:24 54.23327 11.20529 22955 ft 512 kts 45°
2026-05-04 14:25 54.25736 11.25042 22959 ft 512 kts 45°
2026-05-04 14:25 54.30542 11.34065 22961 ft 512 kts 44°
2026-05-04 14:25 54.32931 11.38564 22957 ft 511 kts 44°
2026-05-04 14:26 54.35344 11.43114 22947 ft 511 kts 45°
2026-05-04 14:26 54.37725 11.47612 22960 ft 512 kts 44°
2026-05-04 14:26 54.40123 11.52137 22954 ft 511 kts 44°
2026-05-04 14:26 54.42510 11.56647 22949 ft 512 kts 44°
2026-05-04 14:27 54.44918 11.61204 22986 ft 510 kts 44°
2026-05-04 14:27 54.47300 11.65721 23457 ft 517 kts 45°
2026-05-04 14:27 54.49746 11.70359 24066 ft 525 kts 45°
2026-05-04 14:27 54.52208 11.75033 24672 ft 530 kts 45°
2026-05-04 14:28 54.54671 11.79721 24935 ft 535 kts 45°
2026-05-04 14:28 54.57286 11.84288 24942 ft 531 kts 38°
2026-05-04 14:28 54.60215 11.88156 24938 ft 528 kts 29°
2026-05-04 14:28 54.63407 11.91247 24940 ft 522 kts 20°
2026-05-04 14:29 54.70205 11.94914 24940 ft 508 kts
2026-05-04 14:29 54.77128 11.96385 24942 ft 504 kts
2026-05-04 14:30 54.80618 11.97072 24934 ft 504 kts
2026-05-04 14:30 54.84070 11.97758 24938 ft 502 kts
2026-05-04 14:30 54.91000 11.99144 24935 ft 502 kts
2026-05-04 14:31 54.94491 11.99846 24932 ft 502 kts
2026-05-04 14:31 55.01420 12.01247 24932 ft 503 kts
2026-05-04 14:32 55.08339 12.02655 24929 ft 501 kts
2026-05-04 14:32 55.11817 12.03365 24924 ft 501 kts
2026-05-04 14:32 55.15259 12.04069 24925 ft 502 kts
2026-05-04 14:32 55.18729 12.04780 24925 ft 500 kts
2026-05-04 14:33 55.22159 12.05485 24922 ft 500 kts
2026-05-04 14:33 55.25612 12.06195 24924 ft 500 kts
2026-05-04 14:33 55.29095 12.06914 24922 ft 499 kts
2026-05-04 14:33 55.32507 12.07619 24923 ft 499 kts
2026-05-04 14:34 55.35947 12.08331 24922 ft 498 kts
2026-05-04 14:34 55.39400 12.09047 24924 ft 498 kts
2026-05-04 14:34 55.42844 12.09762 24922 ft 498 kts
2026-05-04 14:34 55.46254 12.10472 24923 ft 497 kts
2026-05-04 14:35 55.49679 12.11186 24926 ft 497 kts
2026-05-04 14:35 55.53135 12.11907 24925 ft 497 kts
2026-05-04 14:35 55.56585 12.12628 24923 ft 496 kts
2026-05-04 14:35 55.60020 12.13347 24588 ft 499 kts
2026-05-04 14:36 55.63440 12.14067 24073 ft 493 kts
2026-05-04 14:36 55.66838 12.14784 23555 ft 488 kts
2026-05-04 14:36 55.70158 12.15485 23121 ft 481 kts
2026-05-04 14:36 55.73474 12.16185 23047 ft 480 kts
2026-05-04 14:37 55.76809 12.16887 23037 ft 482 kts
2026-05-04 14:37 55.80130 12.17590 23032 ft 481 kts
2026-05-04 14:37 55.83108 12.18221 23031 ft 481 kts
2026-05-04 14:37 55.86488 12.18939 23032 ft 481 kts
2026-05-04 14:38 55.89796 12.19642 23025 ft 481 kts
2026-05-04 14:38 55.93081 12.20343 23021 ft 480 kts
2026-05-04 14:38 55.96452 12.21063 23024 ft 480 kts
2026-05-04 14:38 55.99742 12.21766 23024 ft 479 kts
2026-05-04 14:39 56.03041 12.22473 23021 ft 479 kts
2026-05-04 14:39 56.06391 12.23192 23018 ft 479 kts
2026-05-04 14:39 56.09672 12.23736 23017 ft 475 kts 356°
2026-05-04 14:40 56.16184 12.22624 23019 ft 470 kts 346°
2026-05-04 14:40 56.19452 12.21726 23020 ft 469 kts 346°
2026-05-04 14:40 56.22685 12.20832 23016 ft 469 kts 346°
2026-05-04 14:40 56.25895 12.19945 23017 ft 468 kts 346°
2026-05-04 14:41 56.29129 12.19050 23021 ft 468 kts 346°
2026-05-04 14:41 56.32349 12.18159 23020 ft 468 kts 346°
2026-05-04 14:41 56.38747 12.16382 22815 ft 471 kts 346°
2026-05-04 14:42 56.45114 12.14616 21804 ft 452 kts 346°
2026-05-04 14:42 56.48173 12.13767 21306 ft 442 kts 346°
2026-05-04 14:42 56.51194 12.12924 20805 ft 435 kts 346°
2026-05-04 14:43 56.54185 12.12087 20294 ft 433 kts 346°
2026-05-04 14:43 56.57197 12.11242 19781 ft 430 kts 345°
2026-05-04 14:43 56.60119 12.10423 19283 ft 427 kts 345°
2026-05-04 14:43 56.63055 12.09599 18779 ft 425 kts 345°
2026-05-04 14:44 56.65967 12.08781 18283 ft 422 kts 345°
2026-05-04 14:44 56.68892 12.07958 17787 ft 419 kts 345°
2026-05-04 14:44 56.71755 12.07151 17293 ft 416 kts 345°
2026-05-04 14:44 56.74597 12.06348 16799 ft 413 kts 345°
2026-05-04 14:45 56.77411 12.05553 16305 ft 410 kts 345°
2026-05-04 14:45 56.80224 12.04757 16006 ft 405 kts 345°
2026-05-04 14:45 56.83017 12.03963 15956 ft 407 kts 345°
2026-05-04 14:45 56.85789 12.03177 15526 ft 399 kts 345°
2026-05-04 14:46 56.88522 12.02403 15036 ft 390 kts 345°
2026-05-04 14:46 56.91179 12.01648 14551 ft 382 kts 345°
2026-05-04 14:46 56.93761 12.00912 14060 ft 375 kts 345°
2026-05-04 14:46 56.96332 12.00178 13544 ft 368 kts 345°
2026-05-04 14:47 56.98865 11.99453 13056 ft 362 kts 345°
2026-05-04 14:47 57.01356 11.98739 12555 ft 356 kts 345°
2026-05-04 14:47 57.03804 11.98075 12051 ft 352 kts 349°
2026-05-04 14:47 57.06242 11.97902 11562 ft 351 kts 354°
2026-05-04 14:48 57.08647 11.97890 11069 ft 347 kts 355°
2026-05-04 14:48 57.11067 11.97884 10558 ft 345 kts 355°
2026-05-04 14:48 57.13450 11.97877 10050 ft 342 kts 355°
2026-05-04 14:48 57.15794 11.97869 9551 ft 338 kts 355°
2026-05-04 14:49 57.18125 11.97860 9049 ft 335 kts 355°
2026-05-04 14:49 57.20453 11.97850 8545 ft 331 kts 355°
2026-05-04 14:49 57.22736 11.97839 8047 ft 328 kts 355°
2026-05-04 14:49 57.25009 11.97829 7534 ft 325 kts 355°
2026-05-04 14:50 57.27235 11.97820 7076 ft 321 kts 355°
2026-05-04 14:50 57.29424 11.97814 6986 ft 305 kts 355°
2026-05-04 14:50 57.31486 11.97809 6982 ft 288 kts 355°
2026-05-04 14:50 57.33411 11.97802 6972 ft 272 kts 354°
2026-05-04 14:51 57.35279 11.97792 6971 ft 262 kts 354°
2026-05-04 14:51 57.37077 11.97781 7031 ft 257 kts 354°
2026-05-04 14:51 57.38884 11.97769 7026 ft 257 kts 354°
2026-05-04 14:51 57.40671 11.97760 6998 ft 258 kts 354°
2026-05-04 14:52 57.42460 11.97752 6880 ft 257 kts 355°
2026-05-04 14:52 57.44254 11.97744 6750 ft 257 kts 355°
2026-05-04 14:52 57.46051 11.97736 6617 ft 257 kts 355°
2026-05-04 14:52 57.47837 11.97728 6479 ft 257 kts 355°
2026-05-04 14:53 57.49638 11.97720 6354 ft 256 kts 355°
2026-05-04 14:53 57.51431 11.97713 6225 ft 255 kts 354°
2026-05-04 14:53 57.53211 11.97706 6095 ft 254 kts 354°
2026-05-04 14:53 57.54988 11.97789 5959 ft 257 kts
2026-05-04 14:54 57.56692 11.98861 5815 ft 264 kts 20°
2026-05-04 14:54 57.58313 12.00392 5691 ft 264 kts 22°
2026-05-04 14:54 57.59949 12.02002 5565 ft 263 kts 22°
2026-05-04 14:54 57.61554 12.03579 5428 ft 262 kts 22°
2026-05-04 14:55 57.63174 12.05168 5300 ft 258 kts 22°
2026-05-04 14:55 57.64747 12.06712 5175 ft 254 kts 22°
2026-05-04 14:55 57.66298 12.08233 5051 ft 252 kts 22°
2026-05-04 14:55 57.67849 12.09752 4926 ft 251 kts 22°
2026-05-04 14:56 57.69409 12.11281 4799 ft 251 kts 22°
2026-05-04 14:56 57.70941 12.12785 4674 ft 250 kts 22°
2026-05-04 14:56 57.72486 12.14304 4548 ft 249 kts 22°
2026-05-04 14:56 57.74012 12.15805 4472 ft 248 kts 22°
2026-05-04 14:57 57.75565 12.17335 4465 ft 248 kts 22°
2026-05-04 14:57 57.77090 12.18838 4464 ft 248 kts 22°
2026-05-04 14:57 57.78630 12.20358 4463 ft 249 kts 22°
2026-05-04 14:57 57.80149 12.21858 4458 ft 249 kts 22°
2026-05-04 14:58 57.81670 12.23364 4461 ft 242 kts 22°
2026-05-04 14:58 57.83147 12.24827 4466 ft 237 kts 21°
2026-05-04 14:58 57.84585 12.26248 4462 ft 233 kts 21°
2026-05-04 14:58 57.85896 12.28070 4261 ft 240 kts 43°
2026-05-04 14:59 57.86691 12.30883 3993 ft 244 kts 72°
2026-05-04 14:59 57.86912 12.34027 3743 ft 243 kts 84°
2026-05-04 14:59 57.85771 12.39743 3204 ft 235 kts 141°
2026-05-04 15:00 57.84423 12.41178 2975 ft 217 kts 168°
2026-05-04 15:00 57.82973 12.41545 2938 ft 206 kts 181°
2026-05-04 15:00 57.81559 12.41591 2944 ft 198 kts 195°
2026-05-04 15:01 57.79076 12.39636 2946 ft 191 kts 214°
2026-05-04 15:01 57.77896 12.38527 2771 ft 191 kts 212°
2026-05-04 15:01 57.76704 12.37462 2508 ft 181 kts 212°
2026-05-04 15:01 57.75630 12.36493 2287 ft 165 kts 213°
2026-05-04 15:02 57.74604 12.35553 2094 ft 159 kts 213°
2026-05-04 15:02 57.73618 12.34654 1884 ft 157 kts 213°
2026-05-04 15:02 57.72643 12.33765 1667 ft 154 kts 213°
2026-05-04 15:02 57.71672 12.32878 1455 ft 154 kts 212°
2026-05-04 15:03 57.70709 12.32003 1238 ft 153 kts 212°
2026-05-04 15:03 57.69757 12.31135 1023 ft 153 kts 211°
2026-05-04 15:03 57.68811 12.30274 819 ft 142 kts 211°
2026-05-04 15:03 57.67960 12.29521 649 ft 132 kts 211°
2026-05-04 15:04 57.67132 12.28772 526 ft 127 kts 210°
2026-05-04 15:04 57.66477 12.28152 515 ft 87 kts 207°
2026-05-04 15:04 57.66034 12.27769 512 ft 51 kts 205°
2026-05-04 15:04 57.65760 12.27668 512 ft 27 kts 158°
2026-05-04 15:05 57.65739 12.27691 512 ft 0 kts 143°
2026-05-04 15:06 57.65729 12.27713 513 ft 4 kts 121°
2026-05-04 15:06 57.65734 12.27793 514 ft 10 kts 57°
2026-05-04 15:06 57.65798 12.27882 516 ft 12 kts 25°
2026-05-04 15:07 57.66060 12.28120 515 ft 24 kts 26°
2026-05-04 15:07 57.66212 12.28260 515 ft 24 kts 25°
2026-05-04 15:07 57.66365 12.28393 516 ft 23 kts 24°
2026-05-04 15:07 57.66512 12.28523 515 ft 23 kts 32°
2026-05-04 15:08 57.66647 12.28674 512 ft 17 kts 56°
2026-05-04 15:08 57.66634 12.28870 513 ft 11 kts 114°
2026-05-04 15:08 57.66624 12.28912 514 ft 0 kts 114°
2026-05-04 15:09 57.66622 12.28927 514 ft 3 kts 87°
2026-05-04 15:09 57.66636 12.29037 516 ft 13 kts 92°
2026-05-04 15:10 57.66613 12.29160 516 ft 0 kts 115°